Weather History for Sparta, WI

Change the Weather History Date:

Sunday, May 19, 2013

  Actual Average Record
Temperature  
Mean Temperature 74 °F -  
Max Temperature 85 °F 70 °F 90 °F (1972)
Min Temperature 62 °F 46 °F 28 °F (1981)
Cooling Degree Days 8    
Growing Degree Days 24 (Base 50)    
Moisture  
Dew Point 59 °F    
Average Humidity 61    
Maximum Humidity 93    
Minimum Humidity 38    
Precipitation  
Precipitation 0.10 in - - ()
Sea Level Pressure  
Sea Level Pressure 29.78 in    
Wind  
Wind Speed 8 mph (SE)    
Max Wind Speed 18 mph    
Max Gust Speed 36 mph    
Visibility 10 miles    
Events Rain , Thunderstorm    
Averages and records for this station are not official NWS values.
T = Trace of Precipitation, MM = Missing Value Source: NWS Daily Summary

Daily Weather History Graph

Daily Weather History Graph

Search for Another Location

Airport:

Trip Planner

Search our weather history database for the weather conditions in past years. The results will help you decide how hot, cold, wet, or windy it might be!

Date:

Astronomy

May. 19, 2013 Rise Set
Actual Time 5:32 AM CDT 8:26 PM CDT
Civil Twilight 4:58 AM CDT 9:00 PM CDT
Nautical Twilight 4:15 AM CDT 9:44 PM CDT
Astronomical Twilight 3:25 AM CDT 10:34 PM CDT
Moon 2:19 PM CDT (5/19) 2:08 AM CDT (5/19)
Length of Visible Light 16h 02m
Length of Day
14h 54m
Waxing Gibbous, 65% of the Moon is Illuminated
May 19
Waxing Gibbous
May 24
Full
May 31
Last Quarter
Jun 8
New
Jun 16
First Quarter

Hourly Weather History & Observations

Time (CDT) Temp. Heat Index Dew Point Humidity Pressure Visibility Wind Dir Wind Speed Gust Speed Precip Events Conditions
12:15 AM 65.7 °F - 59.2 °F 80% 29.90 in 10.0 mi East 3.5 mph - N/A   Clear
12:35 AM 66.2 °F - 59.2 °F 78% 29.89 in 10.0 mi East 4.6 mph - N/A   Scattered Clouds
12:55 AM 65.1 °F - 59.0 °F 81% 29.89 in 10.0 mi East 4.6 mph - N/A   Scattered Clouds
1:15 AM 64.8 °F - 58.8 °F 81% 29.88 in 10.0 mi ESE 4.6 mph - N/A   Clear
1:35 AM 65.3 °F - 59.0 °F 80% 29.87 in 10.0 mi East 6.9 mph - N/A   Clear
1:55 AM 65.7 °F - 58.5 °F 78% 29.87 in 10.0 mi SE 4.6 mph - N/A   Clear
2:15 AM 68.9 °F - 58.1 °F 68% 29.87 in 10.0 mi SSE 4.6 mph - N/A   Clear
2:35 AM 69.3 °F - 57.9 °F 67% 29.87 in 10.0 mi South 8.1 mph - N/A   Clear
2:55 AM 68.7 °F - 57.7 °F 68% 29.88 in 10.0 mi South 9.2 mph - N/A   Clear
3:15 AM 68.0 °F - 58.1 °F 71% 29.90 in 10.0 mi South 10.4 mph - N/A   Clear
3:35 AM 67.6 °F - 58.1 °F 71% 29.90 in 10.0 mi South 9.2 mph - N/A   Clear
3:55 AM 67.5 °F - 58.1 °F 72% 29.90 in 10.0 mi South 10.4 mph - N/A   Clear
4:15 AM 67.1 °F - 58.1 °F 73% 29.90 in 10.0 mi SSE 10.4 mph - N/A   Clear
4:35 AM 67.3 °F - 58.1 °F 72% 29.89 in 10.0 mi SSE 9.2 mph - N/A   Clear
4:55 AM 66.6 °F - 57.9 °F 74% 29.88 in 10.0 mi SSE 6.9 mph - N/A   Clear
5:15 AM 66.2 °F - 58.1 °F 75% 29.89 in 10.0 mi South 6.9 mph - N/A   Clear
5:35 AM 67.1 °F - 58.1 °F 73% 29.88 in 10.0 mi SSE 8.1 mph - N/A   Mostly Cloudy
5:55 AM 66.7 °F - 58.1 °F 74% 29.88 in 10.0 mi SSE 8.1 mph - N/A   Mostly Cloudy
6:15 AM 67.3 °F - 58.5 °F 73% 29.89 in 10.0 mi SE 4.6 mph - N/A   Mostly Cloudy
6:35 AM 67.3 °F - 58.6 °F 74% 29.88 in 10.0 mi SE 6.9 mph - N/A   Mostly Cloudy
7:15 AM 68.4 °F - 59.0 °F 72% 29.88 in 10.0 mi SE 5.8 mph - N/A   Clear
7:35 AM 68.9 °F - 59.2 °F 71% 29.90 in 10.0 mi SSE 5.8 mph - N/A   Clear
7:55 AM 68.4 °F - 59.4 °F 73% 29.90 in 10.0 mi ESE 5.8 mph - N/A   Mostly Cloudy
8:15 AM 68.9 °F - 59.7 °F 72% 29.88 in 10.0 mi ESE 8.1 mph - N/A   Scattered Clouds
8:35 AM 68.5 °F - 59.9 °F 74% 29.87 in 10.0 mi ESE 5.8 mph - N/A   Scattered Clouds
8:55 AM 69.1 °F - 60.1 °F 73% 29.86 in 10.0 mi ESE 9.2 mph - N/A   Clear
9:15 AM 69.4 °F - 59.9 °F 72% 29.86 in 10.0 mi SSE 13.8 mph 19.6 mph N/A   Clear
9:55 AM 69.4 °F - 60.8 °F 74% 29.78 in 10.0 mi ESE 17.3 mph 26.5 mph N/A   Clear
10:15 AM 71.2 °F - 61.0 °F 70% 29.80 in 10.0 mi SE 15.0 mph 23.0 mph N/A   Clear
10:35 AM 72.7 °F - 61.2 °F 67% 29.81 in 10.0 mi SE 9.2 mph 12.7 mph N/A   Clear
10:55 AM 73.4 °F - 61.0 °F 65% 29.80 in 10.0 mi SE 12.7 mph 17.3 mph N/A   Clear
11:15 AM 76.1 °F - 61.2 °F 60% 29.80 in 10.0 mi South 13.8 mph 19.6 mph N/A   Clear
11:35 AM 78.4 °F - 61.7 °F 56% 29.78 in 10.0 mi SSE 13.8 mph 19.6 mph N/A   Clear
11:55 AM 77.7 °F - 61.2 °F 57% 29.77 in 10.0 mi SSE 10.4 mph 19.6 mph N/A   Clear
12:15 PM 80.4 °F 81.5 °F 61.9 °F 53% 29.77 in 10.0 mi SE 10.4 mph - N/A   Clear
12:35 PM 81.7 °F 82.4 °F 61.5 °F 50% 29.76 in 10.0 mi SE 11.5 mph - N/A   Clear
12:55 PM 82.2 °F 82.6 °F 59.9 °F 47% 29.76 in 10.0 mi SSE 16.1 mph 26.5 mph N/A   Clear
1:15 PM 82.4 °F 83.0 °F 61.3 °F 49% 29.77 in 10.0 mi SSE 18.4 mph 25.3 mph N/A   Clear
1:35 PM 82.4 °F 82.7 °F 60.3 °F 47% 29.77 in 10.0 mi South 17.3 mph 24.2 mph N/A   Clear
2:15 PM 82.6 °F 82.5 °F 58.5 °F 44% 29.76 in 10.0 mi SSE 13.8 mph 20.7 mph N/A   Scattered Clouds
2:35 PM 83.8 °F 83.6 °F 59.2 °F 43% 29.75 in 10.0 mi SSE 15.0 mph 19.6 mph N/A   Clear
3:15 PM 80.8 °F 81.5 °F 60.6 °F 50% 29.75 in 10.0 mi SSE 11.5 mph 16.1 mph N/A   Clear
3:35 PM 81.7 °F 82.4 °F 61.3 °F 50% 29.74 in 10.0 mi SE 9.2 mph - N/A   Clear
3:55 PM 84.6 °F 85.0 °F 61.7 °F 46% 29.72 in 10.0 mi SE 16.1 mph 24.2 mph N/A   Clear
4:15 PM 83.3 °F 83.2 °F 59.5 °F 44% 29.71 in 10.0 mi SSE 10.4 mph 16.1 mph N/A   Clear
4:35 PM 83.3 °F 83.1 °F 58.8 °F 43% 29.70 in 10.0 mi SE 13.8 mph 20.7 mph N/A   Clear
4:55 PM 84.4 °F 84.2 °F 59.5 °F 43% 29.70 in 10.0 mi SSE 11.5 mph 18.4 mph N/A   Clear
5:15 PM 84.7 °F 84.2 °F 58.8 °F 41% 29.70 in 10.0 mi SE 15.0 mph 20.7 mph N/A   Clear
5:35 PM 84.6 °F 84.0 °F 58.3 °F 41% 29.70 in 10.0 mi SSE 12.7 mph 18.4 mph N/A   Clear
5:55 PM 85.1 °F 84.1 °F 56.7 °F 38% 29.69 in 10.0 mi South 15.0 mph 18.4 mph N/A   Clear
6:15 PM 82.8 °F 82.2 °F 56.8 °F 41% 29.69 in 10.0 mi South 9.2 mph - N/A Thunderstorm Clear
6:35 PM 81.5 °F 81.3 °F 56.3 °F 42% 29.68 in 10.0 mi SSW 6.9 mph - N/A   Clear
6:55 PM 81.1 °F 80.9 °F 55.4 °F 41% 29.68 in 10.0 mi SSE 11.5 mph 17.3 mph N/A   Clear
7:15 PM 80.6 °F 80.5 °F 55.8 °F 42% 29.68 in 10.0 mi SSE 9.2 mph - N/A   Scattered Clouds
7:35 PM 79.7 °F - 56.7 °F 45% 29.68 in 10.0 mi SE 9.2 mph - N/A   Scattered Clouds
7:55 PM 78.8 °F - 57.2 °F 47% 29.68 in 10.0 mi SE 9.2 mph - N/A   Clear
8:15 PM 78.1 °F - 57.2 °F 49% 29.67 in 10.0 mi ESE 10.4 mph - N/A   Clear
8:35 PM 77.2 °F - 56.7 °F 49% 29.65 in 10.0 mi ESE 10.4 mph - N/A   Clear
8:55 PM 76.1 °F - 55.8 °F 49% 29.64 in 10.0 mi ESE 9.2 mph - N/A   Clear
9:15 PM 75.7 °F - 55.2 °F 49% 29.62 in 10.0 mi ESE 12.7 mph - N/A   Clear
9:35 PM 76.1 °F - 55.8 °F 49% 29.61 in 10.0 mi ESE 13.8 mph 20.7 mph N/A   Clear
9:55 PM 76.3 °F - 57.4 °F 52% 29.62 in 10.0 mi SE 12.7 mph 20.7 mph N/A   Clear
10:15 PM 76.1 °F - 58.3 °F 54% 29.62 in 10.0 mi SE 11.5 mph 21.9 mph N/A   Clear
10:35 PM 76.1 °F - 59.2 °F 56% 29.62 in 10.0 mi SE 12.7 mph 17.3 mph N/A   Clear
10:55 PM 76.1 °F - 59.5 °F 56% 29.61 in 10.0 mi SE 16.1 mph 25.3 mph N/A   Clear
11:15 PM 66.9 °F - 59.0 °F 76% 29.74 in 5.0 mi WSW 10.4 mph 35.7 mph 0.04 in Rain , Thunderstorm Heavy Thunderstorms and Rain
11:35 PM 62.6 °F - 60.3 °F 92% 29.71 in 10.0 mi Calm Calm - 0.09 in Rain , Thunderstorm Light Thunderstorms and Rain
11:55 PM 62.2 °F - 60.3 °F 93% 29.67 in 10.0 mi ENE 4.6 mph - 0.10 in Rain Light Rain